TimeEST,TemperatureF,Dew PointF,Humidity,Sea Level PressureIn,VisibilityMPH,Wind Direction,Wind SpeedMPH,Gust SpeedMPH,PrecipitationIn,Events,Conditions,WindDirDegrees,DateUTC
12:53 AM,16.0,9.0,74,30.20,10.0,NW,5.8,-,N/A,,Clear,310,2013-01-02 05:53:00
1:53 AM,15.1,7.0,70,30.19,10.0,NW,5.8,-,N/A,,Clear,320,2013-01-02 06:53:00
2:53 AM,14.0,6.1,71,30.22,10.0,NW,8.1,-,N/A,,Clear,320,2013-01-02 07:53:00
3:53 AM,12.9,6.1,74,30.22,10.0,WNW,8.1,-,N/A,,Clear,300,2013-01-02 08:53:00
4:53 AM,12.0,6.1,77,30.23,10.0,NW,8.1,-,N/A,,Clear,320,2013-01-02 09:53:00
5:53 AM,10.9,5.0,77,30.22,10.0,NW,5.8,-,N/A,,Clear,310,2013-01-02 10:53:00
7:53 AM,9.0,5.0,84,30.25,10.0,Calm,Calm,-,N/A,,Clear,0,2013-01-02 12:53:00
8:53 AM,8.1,3.9,83,30.26,10.0,Calm,Calm,-,N/A,,Clear,0,2013-01-02 13:53:00
9:53 AM,12.0,6.1,77,30.28,10.0,Calm,Calm,-,N/A,,Clear,0,2013-01-02 14:53:00
10:53 AM,14.0,3.9,64,30.30,10.0,Calm,Calm,-,N/A,,Clear,0,2013-01-02 15:53:00
11:53 AM,16.0,3.0,57,30.28,10.0,Calm,Calm,-,N/A,,Clear,0,2013-01-02 16:53:00
12:53 PM,19.0,1.9,47,30.25,10.0,West,3.5,-,N/A,,Clear,270,2013-01-02 17:53:00
1:53 PM,21.9,3.0,44,30.23,10.0,Calm,Calm,-,N/A,,Clear,0,2013-01-02 18:53:00
2:53 PM,19.9,1.0,44,30.22,10.0,Calm,Calm,-,N/A,,Clear,0,2013-01-02 19:53:00
3:53 PM,21.0,5.0,50,30.23,10.0,South,4.6,-,N/A,,Clear,190,2013-01-02 20:53:00
4:53 PM,21.0,1.9,44,30.24,10.0,Calm,Calm,-,N/A,,Clear,0,2013-01-02 21:53:00
5:53 PM,19.9,3.9,50,30.25,10.0,Calm,Calm,-,N/A,,Clear,0,2013-01-02 22:53:00
6:53 PM,19.9,6.1,55,30.26,10.0,Calm,Calm,-,N/A,,Clear,0,2013-01-02 23:53:00
7:53 PM,18.0,7.0,62,30.25,10.0,Calm,Calm,-,N/A,,Clear,0,2013-01-03 00:53:00
8:53 PM,17.1,8.1,68,30.25,10.0,Calm,Calm,-,N/A,,Clear,0,2013-01-03 01:53:00
9:53 PM,16.0,8.1,71,30.25,10.0,Calm,Calm,-,N/A,,Clear,0,2013-01-03 02:53:00
10:53 PM,15.1,8.1,74,30.25,10.0,Calm,Calm,-,N/A,,Clear,0,2013-01-03 03:53:00